FW3021 Weather Reports


Display with metric or nautical units.
time (UTC)temp
F
wind
direction
speed
MPH
gust
MPH
rain 1hr
in
rain 24hr
in
rain mn
in
humidity
%
barometer
mb
20260902195536 69 0 3.0 4.0 0.00 0.00 0.00 63 1011.9
20260902194536 67 0 3.0 5.0 0.00 0.00 0.00 64 1012.0
20260902193536 67 0 5.0 6.0 0.00 0.00 0.00 64 1012.0
20260902192516 66 0 5.0 8.0 0.00 0.00 0.00 65 1012.0
20260902191536 67 0 5.0 8.0 0.00 0.00 0.00 63 1012.1
20260902190516 68 0 7.0 11.0 0.00 0.00 0.00 62 1012.3
20260902185516 67 0 7.0 10.0 0.00 0.00 0.00 65 1012.1
20260902184516 66 0 5.0 8.0 0.00 0.00 0.00 65 1012.2
20260902183516 66 0 5.0 9.0 0.00 0.00 0.00 65 1012.4
20260902182516 66 0 4.0 6.0 0.00 0.00 0.00 67 1012.4
20260902181516 67 0 7.0 10.0 0.00 0.00 0.00 65 1012.5
20260902180516 68 0 7.0 10.0 0.00 0.00 0.00 61 1012.5
20260902175516 69 0 6.0 11.0 0.00 0.00 0.00 61 1012.6
20260902174516 68 0 4.0 9.0 0.00 0.00 0.00 59 1012.7
20260902173536 69 0 5.0 10.0 0.00 0.00 0.00 60 1012.7
20260902172516 67 0 4.0 9.0 0.00 0.00 0.00 62 1012.7
20260902171536 68 0 4.0 8.0 0.00 0.00 0.00 61 1012.6
20260902170515 68 0 4.0 6.0 0.00 0.00 0.00 60 1012.4
20260902165516 67 0 5.0 8.0 0.00 0.00 0.00 62 1012.4
20260902164516 67 0 4.0 8.0 0.00 0.00 0.00 63 1012.4
20260902163516 67 0 5.0 8.0 0.00 0.00 0.00 62 1012.4
20260902162515 67 0 5.0 9.0 0.00 0.00 0.00 63 1012.5
20260902161515 67 0 5.0 8.0 0.00 0.00 0.00 65 1012.4
20260902160515 67 0 5.0 8.0 0.00 0.00 0.00 64 1012.5
20260902155515 66 0 5.0 6.0 0.00 0.00 0.00 65 1012.6
20260902154516 67 0 3.0 5.0 0.00 0.00 0.00 66 1012.6
20260902153515 68 0 2.0 4.0 0.00 0.00 0.00 64 1012.6
20260902152516 68 0 2.0 6.0 0.00 0.00 0.00 62 1012.5
20260902151515 69 0 1.0 3.0 0.00 0.00 0.00 62 1012.6
20260902150515 68 0 2.0 4.0 0.00 0.00 0.00 63 1012.6
20260902145515 67 0 3.0 6.0 0.00 0.00 0.00 64 1012.6
20260902144537 67 180 2.0 4.0 0.00 0.00 0.00 65 1012.6
20260902143518 67 0 2.0 5.0 0.00 0.00 0.00 63 1012.6
20260902142518 68 0 1.0 3.0 0.00 0.00 0.00 63 1012.8
20260902141517 68 0 1.0 2.0 0.00 0.00 0.00 63 1012.7
20260902140517 68 0.0 4.0 0.00 0.00 0.00 63 1012.8
20260902135517 68 45 1.0 4.0 0.00 0.00 0.00 63 1012.7
20260902134517 67 0 1.0 5.0 0.00 0.00 0.00 64 1012.8
20260902133517 66 0 1.0 3.0 0.00 0.00 0.00 64 1012.8
20260902132517 65 0.0 2.0 0.00 0.00 0.00 65 1012.8
20260902131517 65 0.0 0.0 0.00 0.00 0.00 66 1012.8
20260902130517 65 0.0 2.0 0.00 0.00 0.00 66 1012.7
20260902125517 64 0.0 4.0 0.00 0.00 0.00 67 1012.6
20260902124517 64 0.0 2.0 0.00 0.00 0.00 66 1012.7
20260902123517 64 180 2.0 5.0 0.00 0.00 0.00 66 1012.5
20260902122517 63 158 1.0 4.0 0.00 0.00 0.00 66 1012.4
20260902121517 63 0.0 4.0 0.00 0.00 0.00 66 1012.3
20260902120517 63 0 1.0 4.0 0.00 0.00 0.00 65 1012.2
20260902115517 63 0 3.0 9.0 0.00 0.00 0.00 65 1012.0
20260902114517 64 0 3.0 9.0 0.00 0.00 0.00 65 1012.0
20260902113517 64 0 3.0 10.0 0.00 0.00 0.00 64 1012.1
20260902112517 64 0 3.0 9.0 0.00 0.00 0.00 64 1012.0
20260902111517 64 45 3.0 6.0 0.00 0.00 0.00 64 1011.9
20260902110517 64 0 3.0 8.0 0.00 0.00 0.00 64 1012.0
20260902105517 64 0 3.0 8.0 0.00 0.00 0.00 64 1012.1
20260902104657 64 0 3.0 9.0 0.00 0.00 0.00 64 1012.1
20260902103517 64 0 3.0 8.0 0.00 0.00 0.00 64 1012.3
20260902102517 64 0 2.0 5.0 0.00 0.00 0.00 64 1012.4
20260902101517 64 0 2.0 5.0 0.00 0.00 0.00 64 1012.5
20260902100517 65 0 2.0 8.0 0.00 0.00 0.00 64 1012.6
20260902095517 65 0 4.0 7.0 0.00 0.00 0.00 64 1012.5
20260902094517 65 0 4.0 8.0 0.00 0.00 0.00 64 1012.4
20260902093517 64 0 3.0 6.0 0.00 0.00 0.00 64 1012.3
20260902092517 64 0 2.0 7.0 0.00 0.00 0.00 65 1012.2
20260902091517 65 0 2.0 6.0 0.00 0.00 0.00 65 1012.1
20260902090517 64 0 3.0 7.0 0.00 0.00 0.00 65 1012.1
20260902085517 64 0 2.0 9.0 0.00 0.00 0.00 66 1012.1
20260902084517 64 0 3.0 6.0 0.00 0.00 0.00 67 1012.0
20260902083517 64 0 2.0 5.0 0.00 0.00 0.00 66 1012.0
20260902082517 64 0 2.0 5.0 0.00 0.00 0.00 65 1012.2
20260902081517 64 0 2.0 5.0 0.00 0.00 0.00 65 1012.1
20260902080517 64 0 2.0 4.0 0.00 0.00 0.00 65 1012.0
20260902075537 64 0 2.0 6.0 0.00 0.00 0.00 65 1012.0
20260902074517 64 0 2.0 5.0 0.00 0.00 0.00 66 1011.8
20260902073516 64 0 1.0 3.0 0.00 0.00 0.00 66 1011.9
20260902072517 64 0 2.0 3.0 0.00 0.00 0.00 65 1011.8
20260902071516 64 0 2.0 6.0 0.00 0.00 0.00 66 1011.6
20260902070516 63 0 2.0 8.0 0.00 0.00 0.00 67 1011.8
20260902065516 63 0 2.0 6.0 0.00 0.00 0.00 68 1011.8
20260902064537 63 0 2.0 4.0 0.00 0.00 0.00 68 1012.0
20260902063517 63 315 1.0 4.0 0.00 0.00 0.00 67 1011.9
20260902062516 64 0 1.0 3.0 0.00 0.00 0.00 67 1011.9
20260902061537 64 0 2.0 3.0 0.00 0.00 0.00 66 1011.9
20260902060517 64 315 1.0 3.0 0.00 0.00 0.00 66 1011.9
20260902055517 64 0 2.0 6.0 0.00 0.00 0.00 67 1012.0
20260902054517 64 0 1.0 3.0 0.00 0.00 0.00 67 1011.9
20260902053516 64 0 2.0 4.0 0.00 0.00 0.00 66 1012.1
20260902052516 64 0 2.0 5.0 0.00 0.00 0.00 65 1012.3
20260902051557 65 315 2.0 6.0 0.00 0.00 0.00 65 1012.5
20260902050516 65 0 2.0 6.0 0.00 0.00 0.00 65 1012.4
20260902045516 64 0 2.0 4.0 0.00 0.00 0.00 65 1012.3
20260902044517 65 0 3.0 5.0 0.00 0.00 0.00 65 1012.2
20260902043516 65 0 2.0 5.0 0.00 0.00 0.00 65 1012.1
20260902042516 65 0 2.0 4.0 0.00 0.00 0.00 64 1011.9
20260902041516 65 0 2.0 5.0 0.00 0.00 0.00 64 1011.7
20260902040516 66 0 2.0 5.0 0.00 0.00 0.00 63 1011.8
20260902035517 66 0 1.0 3.0 0.00 0.00 0.00 63 1011.8
20260902034517 66 0 2.0 5.0 0.00 0.00 0.00 63 1011.9
20260902033516 66 0 2.0 5.0 0.00 0.00 0.00 64 1011.9
20260902032517 66 338 1.0 5.0 0.00 0.00 0.00 63 1011.9
20260902031516 66 0 2.0 5.0 0.00 0.00 0.00 63 1011.7
20260902030516 66 0 1.0 3.0 0.00 0.00 0.00 63 1011.7
20260902025516 66 338 1.0 3.0 0.00 0.00 0.00 63 1011.6
20260902024516 66 0 1.0 4.0 0.00 0.00 0.00 64 1011.5
20260902023516 66 0 1.0 2.0 0.00 0.00 0.00 63 1011.4
20260902022516 66 0 1.0 3.0 0.00 0.00 0.00 63 1011.3
20260902021516 66 338 1.0 3.0 0.00 0.00 0.00 63 1011.3
20260902020517 65 293 1.0 4.0 0.00 0.00 0.00 64 1011.2
20260902015516 65 315 1.0 3.0 0.00 0.00 0.00 65 1011.1
20260902014516 66 0 2.0 4.0 0.00 0.00 0.00 65 1010.9
20260902013516 66 23 1.0 2.0 0.00 0.00 0.00 65 1010.8
20260902012517 67 0 1.0 2.0 0.00 0.00 0.00 64 1010.8
20260902011516 67 0 2.0 4.0 0.00 0.00 0.00 63 1010.7
20260902010516 67 248 2.0 3.0 0.00 0.00 0.00 64 1010.5
20260902005536 68 248 2.0 3.0 0.00 0.00 0.00 63 1010.3
20260902004516 69 248 2.0 3.0 0.00 0.00 0.00 62 1010.3
20260902003516 70 248 2.0 3.0 0.00 0.00 0.00 61 1010.3
20260902002516 72 248 2.0 3.0 0.00 0.00 0.00 60 1010.4
20260902001516 73 248 1.0 3.0 0.00 0.00 0.00 57 1010.4
20260902000516 74 248 1.0 3.0 0.00 0.00 0.00 55 1010.4
20260901235516 75 248 1.0 2.0 0.00 0.00 0.00 51 1010.3
20260901234516 76 0 1.0 3.0 0.00 0.00 0.00 46 1010.2
20260901233516 77 0 1.0 3.0 0.00 0.00 0.00 45 1010.1
20260901232516 77 0 1.0 4.0 0.00 0.00 0.00 45 1010.0
20260901231516 78 0.0 2.0 0.00 0.00 0.00 42 1009.8
20260901230516 78 0.0 2.0 0.00 0.00 0.00 41 1009.8
20260901225516 79 0 2.0 5.0 0.00 0.00 0.00 39 1009.9
20260901224516 80 0 2.0 5.0 0.00 0.00 0.00 37 1009.9
20260901223516 80 0 3.0 9.0 0.00 0.00 0.00 35 1009.7
20260901222516 81 0 2.0 6.0 0.00 0.00 0.00 35 1009.8
20260901221516 82 0 3.0 10.0 0.00 0.00 0.00 34 1009.8
20260901220536 82 0 2.0 7.0 0.00 0.00 0.00 34 1009.7
20260901215516 83 0 4.0 11.0 0.00 0.00 0.00 34 1009.8
20260901214536 83 0 2.0 6.0 0.00 0.00 0.00 34 1009.8
20260901213516 82 0 3.0 11.0 0.00 0.00 0.00 33 1009.9
20260901212536 82 0 2.0 11.0 0.00 0.00 0.00 34 1009.8
20260901211516 83 0 4.0 16.0 0.00 0.00 0.00 32 1009.7
20260901210516 83 0 5.0 14.0 0.00 0.00 0.00 32 1009.7
20260901205516 83 0 5.0 17.0 0.00 0.00 0.00 32 1009.7
20260901204516 83 0 6.0 13.0 0.00 0.00 0.00 32 1009.7
20260901203516 83 0 4.0 12.0 0.00 0.00 0.00 33 1009.7
20260901202516 83 0 4.0 11.0 0.00 0.00 0.00 32 1009.7
20260901201536 83 0 3.0 5.0 0.00 0.00 0.00 34 1009.7
20260901200516 83 0 3.0 10.0 0.00 0.00 0.00 34 1009.7